Sergiu Nita

Scout - Petrolul
5 Aug 2027
Thursday
Process

Personality

Adaptability (5) Ambition (5) Controversy (4) Loyalty (8) Pressure (16) Professionalism (5) Sportsmanship (9) Temperament (19)

Profile

Coaching Style Democratic
License National B
Determination 11
Man Management 7
Motivating 7
Discipline 11
Job Satisfaction
100%
Fatigue
0%
Role Scout
Wage 35.0K p/w
Contract 14.03.2029

Performance

Behaviour Good
Training Effectiveness
23%
Player Development
15%
Injury Prevention
45%
Tactical Implementation
30%

Recent Events

Attended a recruitment meeting now
Recommended a transfer target now
Attended a recruitment meeting now
Recommended a transfer target now
Recommended a transfer target now
Recommended a transfer target 7d ago
Recommended a transfer target 7d ago
Attended a recruitment meeting 7d ago

Currently Monitoring

142
Player Club Status Ability Confidence Watched Last Observed Latest Vote
Alexandru Stoian FCSB Active 97 / 113 76% 1 02.08.2027 Approve
Adrian Hagi Pandurii Lost 98 / 108 72% 1 21.06.2027 Approve
Moussa Yeo Swansea City Active 123 / 129 40% 2 14.06.2027 -
Brandon Hanlan Doncaster Rovers Active 93 / 93 40% 1 14.06.2027 -
Narcis Ilaş Botosani Active 114 / 116 72% 1 06.06.2027 Approve
Silvio Merkaj Vicenza Active 127 / 110 40% 1 31.05.2027 -
Emanuele Scipioni Monopoli Active 99 / 114 40% 1 31.05.2027 -
Abu Kamara Portsmouth Active 115 / 121 40% 1 31.05.2027 -
Malik Mothersille Stockport County Active 114 / 123 40% 2 28.05.2027 -
Isaak Davies Cardiff City Active 108 / 123 40% 1 28.05.2027 -
Marco Tumminello Benevento Active 107 / 112 40% 1 28.05.2027 -
Martin Sekulić Ural Active 106 / 103 40% 1 27.05.2027 -
Erick Dolly Black Aces Active 122 / 110 40% 1 27.05.2027 -
Mees Rijks Bristol Rovers Active 122 / 116 40% 3 26.05.2027 -
Samuel Kalu Botev Plovdiv Active 120 / 117 40% 3 24.05.2027 -
Kyle Wootton Stockport County Active 117 / 122 40% 3 24.05.2027 Monitor
Mattia Iori Lumezzane Active 102 / 103 40% 1 24.05.2027 -
Percy Vilakazi Free State Stars Active 122 / 99 40% 3 23.05.2027 -
Elijah Adebayo Luton Town Active 135 / 124 40% 1 23.05.2027 Needs More Info
Christian Saydee Wigan Athletic Active 111 / 121 40% 1 23.05.2027 -
Patrick Cutrone Monza Active 142 / 128 40% 3 22.05.2027 Monitor
Jérémy Le Douaron Palermo Active 133 / 122 40% 1 21.05.2027 Needs More Info
Ettore Gliozzi Mantova Active 114 / 124 40% 3 19.05.2027 -
Don Bolsius Ascoli Active 112 / 95 40% 2 19.05.2027 -
Simone Mazzocchi Cosenza Active 125 / 103 40% 1 19.05.2027 -
Zach Ryan Ismaily Active 98 / 107 40% 2 18.05.2027 -
Ronan Hale Gillingham Active 103 / 103 40% 1 18.05.2027 -
Yannick Woudstra AFC Wimbledon Active 107 / 103 40% 1 18.05.2027 -
Dale Taylor Blackpool Active 101 / 124 40% 2 14.05.2027 -
Giuseppe Panico Foggia Active 124 / 107 40% 1 14.05.2027 -
Rhian Brewster Oleksandriya Active 127 / 119 40% 2 10.05.2027 Needs More Info
Rui Costa Port Vale Active 114 / 115 40% 2 10.05.2027 -
Stiven Shpendi Empoli Active 127 / 113 40% 2 10.05.2027 -
Lorenzo Di Stefano Torres Active 100 / 120 40% 3 09.05.2027 -
Luca Moro Padova Active 123 / 121 40% 1 07.05.2027 -
Moussakoye Diallo Stade Malien Active 104 / 110 40% 1 07.05.2027 -
Bojan Radulović Huddersfield Town Active 118 / 111 40% 2 06.05.2027 -
Giuseppe Sibilli Juve Stabia Active 123 / 123 40% 1 06.05.2027 -
Tyreece Campbell Charlton Athletic Active 116 / 124 40% 3 04.05.2027 -
Sam Nombe Milton Keynes Dons Active 119 / 101 40% 1 04.05.2027 -
Matty Stevens AFC Wimbledon Active 102 / 113 40% 1 02.05.2027 -
Augustus Kargbo Blackburn Rovers Active 104 / 101 40% 1 02.05.2027 -
Marco Da Graca Novara Active 92 / 95 40% 1 28.04.2027 -
Simone Rabbi Ravenna Active 119 / 120 40% 1 28.04.2027 -
Sam Bell Bristol City Active 125 / 130 40% 1 27.04.2027 -
Ryan Graydon Salford City Active 105 / 90 40% 2 25.04.2027 -
Tyler Roberts Mansfield Town Active 93 / 92 40% 1 25.04.2027 -
David Okereke Cremonese Active 118 / 112 40% 1 25.04.2027 -
Callum Lang Preston Active 114 / 109 40% 1 24.04.2027 -
Matteo Rover Reggiana Active 111 / 110 40% 1 24.04.2027 -
John Yeboah Venezia Active 129 / 109 40% 1 24.04.2027 -
Oleksii Hutsuliak Polissia Active 133 / 129 40% 1 23.04.2027 -
Anatole Abang USM Alger Active 122 / 104 40% 1 20.04.2027 -
Aaron Collins Milton Keynes Dons Active 126 / 107 40% 2 18.04.2027 -
Harrison Kudus WAFA Active 102 / 108 40% 1 18.04.2027 -
Aidomo Emakhu Oxford United Active 110 / 136 40% 1 16.04.2027 -
Lorent Tolaj Plymouth Argyle Active 115 / 123 40% 1 16.04.2027 -
Josh Coburn Millwall Active 113 / 126 40% 1 15.04.2027 -
Bernat Guiu Virtus Entella Active 121 / 117 40% 1 15.04.2027 -
Brayan Gil Baltika Active 122 / 126 40% 1 14.04.2027 -
Solly Khunyedi Bloemfontein Celtic Active 90 / 94 40% 1 13.04.2027 -
Aaron Drinan Swindon Town Active 97 / 102 40% 1 10.04.2027 -
Oto John ES Mostaganem Active 101 / 114 40% 1 10.04.2027 -
Rocco Vata Watford Active 113 / 115 40% 1 09.04.2027 -
Richard Koné Queens Park Rangers Active 129 / 137 40% 1 09.04.2027 -
Edoardo Soleri Bari Active 127 / 121 40% 1 08.04.2027 -
Giacomo Zecca Torres Active 115 / 103 40% 1 08.04.2027 -
Willem Geubbels Lecce Active 127 / 141 40% 1 07.04.2027 -
Giorgi Kvernadze Frosinone Active 124 / 121 40% 1 07.04.2027 -
Bosun Lawal Stoke City Active 120 / 131 40% 1 01.02.2027 -
Simone Canestrelli Pisa Active 131 / 124 40% 1 01.02.2027 -
Alfie Gilchrist West Bromwich Albion Active 127 / 132 40% 1 01.02.2027 -
Romelle Donovan Brentford Active 107 / 141 40% 1 31.12.2026 -
Alexandru Cicâldău Universitatea Craiova Active 117 / 128 40% 2 30.12.2026 -
Armstrong Oko-Flex Levski Active 124 / 117 40% 2 30.12.2026 -
Giuseppe Pezzella Cremonese Active 120 / 122 40% 1 30.12.2026 -
Bongani Zungu Ajax Cape Town Active 119 / 126 40% 2 29.12.2026 -
Marko Grujić Levski Active 125 / 131 40% 1 29.12.2026 -
Ştefan Bodişteanu Botosani Active 104 / 105 40% 1 26.12.2026 Needs More Info
Edu Expósito Espanyol Active 137 / 141 40% 1 26.12.2026 -
José Bernal Ethnikos Achnas Active 103 / 95 40% 1 24.12.2026 -
Will Hughes Bloemfontein Celtic Active 137 / 120 40% 1 24.12.2026 -
Brooklyn Poggenpoel Maritzburg United Active 114 / 99 40% 2 19.12.2026 -
Luiz Araújo Flamengo Active 122 / 137 40% 1 17.12.2026 -
Mandla Kekana Ajax Cape Town Active 115 / 104 40% 1 17.12.2026 -
Marko Janković Qarabag Active 131 / 119 40% 1 17.12.2026 -
Ruslan Apekov Torpedo Moscow Active 109 / 104 40% 1 14.12.2026 -
Nazmi Gripshi Rubin Active 114 / 117 40% 1 14.12.2026 -
Khuliso Mudau Mamelodi Sundowns Active 134 / 128 40% 1 12.12.2026 -
Yeangel Montero Naxxar Lions Active 110 / 97 40% 1 12.12.2026 -
Oliver Arblaster Sheffield United Active 135 / 123 40% 1 11.12.2026 -
Isaac Solet CSKA Sofia Active 117 / 124 40% 1 11.12.2026 -
Harvey Vale Queens Park Rangers Active 133 / 117 40% 1 08.12.2026 -
Petar Stanić Ludogorets Active 137 / 136 40% 1 08.12.2026 -
Asanele Velebayi Kaizer Chiefs Active 116 / 97 40% 1 07.12.2026 -
Thabo Nodada Maritzburg United Active 107 / 100 40% 1 03.12.2026 -
Sandi Zajc NK Domzale Active 101 / 113 40% 1 03.12.2026 -
Juan Bezerra Zamalek Active 115 / 122 40% 1 03.12.2026 -
Marcelo Allende Mamelodi Sundowns Active 125 / 121 40% 1 02.12.2026 -
Hansel Zapata Arsenal Tula Active 119 / 111 40% 1 02.12.2026 -
Xeber Alkain Karpaty Active 118 / 116 40% 1 02.12.2026 -
Hervin Ongenda Botosani Active 116 / 118 40% 1 26.11.2026 -
Dragos Puscas Pandurii Active 109 / 108 40% 1 26.11.2026 -
Álex Centelles Levski Active 121 / 127 40% 1 24.11.2026 -
Mamadou Thiam FCSB Active 117 / 119 40% 1 24.11.2026 -
Meriton Korenica CFR Cluj Active 127 / 119 40% 2 22.11.2026 -
Ole-Didrik Blomberg Bodo/Glimt Active 127 / 127 40% 1 22.11.2026 -
Mohammed Kamara CFR Cluj Active 117 / 117 40% 3 21.11.2026 -
Juan Pablo Gallego Fehervar Active 115 / 115 40% 1 21.11.2026 -
Matheus Silva Qarabag Active 121 / 128 40% 1 20.11.2026 -
Dimitar Mitrovski Olimpija Ljubljana Active 110 / 106 40% 1 20.11.2026 -
Allan Saint-Maximin Charlotte Football Club Active 148 / 129 40% 1 18.11.2026 -
Ryan Gauld Vancouver Whitecaps Active 141 / 146 40% 1 18.11.2026 -
Adu Ares Eibar Active 123 / 119 40% 1 17.11.2026 -
Daniel Kyerewaa Reading Active 101 / 113 40% 1 17.11.2026 -
Callum Robinson Poltava Active 120 / 121 40% 1 16.11.2026 -
Mattéo Ahlinvi Viitorul Active 109 / 94 40% 1 15.11.2026 -
Egas Cacintura Akhmat Grozny Active 121 / 118 40% 1 15.11.2026 -
Franco Cristaldo Talleres Active 138 / 126 40% 1 14.11.2026 -
Matthias Seidl Rapid Wien Active 135 / 116 40% 1 12.11.2026 -
Anders Dreyer San Diego Football Club Active 130 / 141 40% 1 12.11.2026 -
Paul Chiriches Pandurii Active 109 / 109 40% 1 07.11.2026 -
Emil Breivik Molde Active 118 / 116 40% 1 07.11.2026 -
Danilo Boza Dinamo Bucharest Active 134 / 132 40% 2 06.11.2026 -
Goodman Mosele Chippa United Active 96 / 108 40% 1 06.11.2026 -
Isaac Matondo Koper Active 113 / 106 40% 1 05.11.2026 -
David Miculescu FCSB Active 129 / 126 40% 1 05.11.2026 -
Teboho Mokoena Mamelodi Sundowns Active 144 / 121 40% 1 04.11.2026 -
Arsen Adamov Akhmat Grozny Active 113 / 122 40% 1 08.10.2026 -
Carlos Mora Universitatea Craiova Active 130 / 121 40% 1 08.10.2026 Needs More Info
Erik Botheim Viking Active 114 / 122 40% 1 07.10.2026 -
Daniel Karlsbakk Sarpsborg 08 Active 122 / 129 40% 1 07.10.2026 -
Lebogang Manyama SuperSport United Active 103 / 111 40% 1 06.10.2026 -
Kamil Conteh Bristol Rovers Active 92 / 115 40% 1 06.10.2026 -
Vladimir Screciu Viitorul Active 122 / 116 40% 1 06.10.2026 -
Lautaro Lusnig Deportivo Tachira Active 104 / 103 40% 1 08.09.2026 -
Raul Opruţ Dinamo Bucharest Active 110 / 121 40% 1 08.09.2026 -
Lovro Cvek Voluntari Active 101 / 98 69% 1 17.08.2026 Approve
Cristian Mihai Dinamo Bucharest Active 105 / 111 69% 1 03.08.2026 Approve
Franco Pizzichillo Montevideo City Torque Active 106 / 122 40% 1 01.08.2026 -
Tim Iroegbunam Hull City Active 127 / 134 40% 1 01.08.2026 -
Lucas Rodríguez Albion Active 105 / 116 40% 1 01.08.2026 -